| time (UTC) | temp C | wind direction | speed KPH | gust KPH | rain 1hr cm | rain 24hr cm | rain mn cm | humidity % | barometer mb |
| 20260509022602 | -17 | 0.0 | 0.0 | 0.00 | 0.15 | 0.15 | 1012.5 | ||
| 20260509022058 | -17 | 0.0 | 0.0 | 0.00 | 0.15 | 0.15 | 1012.5 | ||
| 20260509021601 | -17 | 0.0 | 0.0 | 0.00 | 0.15 | 0.15 | 1012.5 | ||
| 20260509021101 | -17 | 0.0 | 0.0 | 0.00 | 0.15 | 0.15 | 1012.6 | ||
| 20260509020559 | -17 | 0.0 | 0.0 | 0.00 | 0.15 | 0.15 | 1012.6 | ||
| 20260509020057 | -17 | 0.0 | 0.0 | 0.00 | 0.15 | 0.15 | 1012.5 | ||
| 20260509015559 | -17 | 0.0 | 0.0 | 0.00 | 0.15 | 0.15 | 1012.5 | ||
| 20260509015056 | -17 | 0.0 | 0.0 | 0.00 | 0.15 | 0.15 | 1012.4 | ||
| 20260509014735 | -17 | 0.0 | 0.0 | 0.00 | 0.15 | 0.15 | 1012.3 | ||
| 20260509014059 | -17 | 0.0 | 0.0 | 0.00 | 0.15 | 0.15 | 1012.3 | ||
| 20260509013559 | -17 | 0.0 | 0.0 | 0.00 | 0.15 | 0.15 | 1012.2 | ||
| 20260509013102 | -17 | 0.0 | 0.0 | 0.00 | 0.15 | 0.15 | 1012.2 | ||
| 20260509012558 | -17 | 0.0 | 0.0 | 0.00 | 0.15 | 0.15 | 1012.1 | ||
| 20260509012058 | -17 | 0.0 | 0.0 | 0.00 | 0.15 | 0.15 | 1012.1 | ||
| 20260509011704 | -17 | 0.0 | 0.0 | 0.00 | 0.15 | 0.15 | 1012.0 | ||
| 20260509011103 | -17 | 0.0 | 0.0 | 0.00 | 0.15 | 0.15 | 1011.9 | ||
| 20260509010559 | -17 | 0.0 | 0.0 | 0.00 | 0.15 | 0.15 | 1011.9 | ||
| 20260509010234 | -17 | 0.0 | 0.0 | 0.00 | 0.15 | 0.15 | 1011.7 | ||
| 20260509005602 | -17 | 0.0 | 0.0 | 0.00 | 0.15 | 0.15 | 1011.7 | ||
| 20260509005056 | -17 | 0.0 | 0.0 | 0.00 | 0.15 | 0.15 | 1011.6 | ||
| 20260509004604 | -17 | 0.0 | 0.0 | 0.00 | 0.15 | 0.15 | 1011.6 | ||
| 20260509004056 | -17 | 0.0 | 0.0 | 0.00 | 0.15 | 0.15 | 1011.5 | ||
| 20260509003556 | -17 | 0.0 | 0.0 | 0.00 | 0.15 | 0.15 | 1011.5 | ||
| 20260509003057 | -17 | 0.0 | 0.0 | 0.00 | 0.15 | 0.15 | 1011.4 | ||
| 20260509002557 | -17 | 0.0 | 0.0 | 0.00 | 0.15 | 0.15 | 1011.4 | ||
| 20260509002056 | -17 | 0.0 | 0.0 | 0.00 | 0.15 | 0.15 | 1011.4 | ||
| 20260509001559 | -17 | 0.0 | 0.0 | 0.00 | 0.15 | 0.15 | 1011.3 | ||
| 20260509001100 | -17 | 0.0 | 0.0 | 0.00 | 0.15 | 0.15 | 1011.4 | ||
| 20260509000555 | -17 | 0.0 | 0.0 | 0.00 | 0.15 | 0.15 | 1011.3 | ||
| 20260509000105 | -17 | 0.0 | 0.0 | 0.00 | 0.15 | 0.15 | 1011.3 | ||
| 20260508235559 | -17 | 0.0 | 0.0 | 0.00 | 0.15 | 0.15 | 1011.3 | ||
| 20260508235059 | -17 | 0.0 | 0.0 | 0.00 | 0.15 | 0.15 | 1011.2 | ||
| 20260508234600 | -17 | 0.0 | 0.0 | 0.00 | 0.15 | 0.15 | 1011.2 | ||
| 20260508234059 | -17 | 0 | 0.0 | 1.6 | 0.00 | 0.15 | 0.15 | 1011.2 | |
| 20260508233559 | 8 | 0 | 0.0 | 1.6 | 0.00 | 0.15 | 0.15 | 52 | 1011.1 |
| 20260508233332 | 8 | 0 | 0.0 | 0.0 | 0.00 | 0.15 | 0.15 | 50 | 1011.1 |
| 20260508232559 | 8 | 0 | 0.0 | 3.2 | 0.00 | 0.15 | 0.15 | 50 | 1011.1 |
| 20260508232100 | 8 | 0 | 0.0 | 3.2 | 0.00 | 0.15 | 0.15 | 49 | 1010.9 |
| 20260508231710 | 8 | 0 | 0.0 | 3.2 | 0.00 | 0.15 | 0.15 | 48 | 1011.0 |
| 20260508231057 | 8 | 0 | 0.0 | 3.2 | 0.00 | 0.15 | 0.15 | 49 | 1010.9 |
| 20260508230556 | 8 | 0 | 0.0 | 3.2 | 0.00 | 0.15 | 0.15 | 47 | 1011.0 |
| 20260508230227 | 9 | 0 | 0.0 | 6.4 | 0.00 | 0.15 | 0.15 | 47 | 1010.8 |
| 20260508225557 | 9 | 348 | 0.0 | 6.4 | 0.00 | 0.15 | 0.15 | 47 | 1010.9 |
| 20260508225057 | 9 | 166 | 0.0 | 6.4 | 0.00 | 0.15 | 0.15 | 48 | 1010.9 |
| 20260508224731 | 9 | 0 | 0.0 | 0.0 | 0.00 | 0.15 | 0.15 | 48 | 1010.9 |
| 20260508224656 | 9 | 0 | 0.0 | 0.0 | 0.00 | 0.15 | 0.15 | 48 | 1010.9 |
| 20260508224102 | 9 | 0 | 0.0 | 0.0 | 0.00 | 0.15 | 0.15 | 48 | 1010.9 |
| 20260508223556 | 9 | 0 | 0.0 | 3.2 | 0.00 | 0.15 | 0.15 | 47 | 1010.9 |
| 20260508223058 | 9 | 0 | 0.0 | 3.2 | 0.00 | 0.15 | 0.15 | 47 | 1010.9 |
| 20260508222558 | 9 | 0 | 0.0 | 4.8 | 0.00 | 0.15 | 0.15 | 47 | 1011.0 |
| 20260508222059 | 9 | 0 | 0.0 | 3.2 | 0.00 | 0.15 | 0.15 | 46 | 1011.1 |
| 20260508221608 | 10 | 0 | 0.0 | 3.2 | 0.00 | 0.15 | 0.15 | 48 | 1011.1 |
| 20260508221056 | 10 | 0 | 0.0 | 0.0 | 0.00 | 0.15 | 0.15 | 49 | 1011.2 |
| 20260508220556 | 10 | 0 | 0.0 | 6.4 | 0.00 | 0.15 | 0.15 | 49 | 1011.2 |
| 20260508220100 | 10 | 0 | 0.0 | 6.4 | 0.00 | 0.15 | 0.15 | 46 | 1011.2 |
| 20260508215600 | 10 | 0 | 0.0 | 1.6 | 0.00 | 0.15 | 0.15 | 49 | 1011.2 |
| 20260508215100 | 10 | 0 | 0.0 | 6.4 | 0.00 | 0.15 | 0.15 | 48 | 1011.1 |
| 20260508214608 | 10 | 0 | 0.0 | 6.4 | 0.00 | 0.15 | 0.15 | 48 | 1011.1 |
| 20260508214055 | 9 | 0 | 0.0 | 6.4 | 0.00 | 0.15 | 0.15 | 52 | 1011.2 |
| 20260508213558 | 9 | 0 | 0.0 | 8.0 | 0.00 | 0.15 | 0.15 | 50 | 1011.1 |
| 20260508213058 | 9 | 0 | 0.0 | 8.0 | 0.00 | 0.15 | 0.15 | 49 | 1011.2 |
| 20260508212558 | 10 | 0 | 0.0 | 6.4 | 0.00 | 0.15 | 0.15 | 49 | 1011.2 |
| 20260508212058 | 10 | 0 | 0.0 | 6.4 | 0.00 | 0.15 | 0.15 | 51 | 1011.2 |
| 20260508211600 | 10 | 0 | 0.0 | 3.2 | 0.00 | 0.15 | 0.15 | 51 | 1011.2 |
| 20260508211056 | 10 | 0 | 0.0 | 3.2 | 0.00 | 0.15 | 0.15 | 49 | 1011.2 |
| 20260508210602 | 10 | 5 | 0.0 | 8.0 | 0.00 | 0.15 | 0.15 | 51 | 1011.3 |
| 20260508210108 | 10 | 0 | 0.0 | 8.0 | 0.00 | 0.15 | 0.15 | 50 | 1011.2 |
| 20260508205558 | 10 | 231 | 0.0 | 4.8 | 0.00 | 0.15 | 0.15 | 48 | 1011.2 |
| 20260508205057 | 10 | 236 | 0.0 | 4.8 | 0.00 | 0.15 | 0.15 | 49 | 1011.3 |
| 20260508204601 | 10 | 0 | 0.0 | 3.2 | 0.00 | 0.15 | 0.15 | 58 | 1011.3 |
| 20260508204057 | 10 | 0 | 0.0 | 3.2 | 0.00 | 0.15 | 0.15 | 54 | 1011.2 |
| 20260508203559 | 10 | 0 | 0.0 | 3.2 | 0.00 | 0.15 | 0.15 | 55 | 1011.2 |
| 20260508203104 | 9 | 0 | 0.0 | 3.2 | 0.00 | 0.15 | 0.15 | 62 | 1011.2 |
| 20260508202557 | 9 | 0 | 0.0 | 11.3 | 0.00 | 0.15 | 0.15 | 57 | 1011.3 |
| 20260508202056 | 10 | 0 | 0.0 | 11.3 | 0.00 | 0.15 | 0.15 | 56 | 1011.4 |
| 20260508201704 | 10 | 0 | 0.0 | 9.7 | 0.00 | 0.15 | 0.15 | 58 | 1011.4 |
| 20260508201150 | 10 | 0 | 0.0 | 8.0 | 0.00 | 0.15 | 0.15 | 60 | 1011.5 |
| 20260508200557 | 9 | 0 | 0.0 | 4.8 | 0.00 | 0.15 | 0.15 | 58 | 1011.6 |
| 20260508195555 | 9 | 0 | 0.0 | 6.4 | 0.00 | 0.15 | 0.15 | 62 | 1011.5 |
| 20260508195055 | 8 | 0 | 0.0 | 0.0 | 0.00 | 0.15 | 0.15 | 65 | 1011.6 |
| 20260508194600 | 8 | 0 | 0.0 | 6.4 | 0.00 | 0.15 | 0.15 | 60 | 1011.7 |
| 20260508194058 | 9 | 0 | 0.0 | 6.4 | 0.00 | 0.15 | 0.15 | 59 | 1011.7 |
| 20260508193557 | 9 | 0 | 0.0 | 6.4 | 0.00 | 0.15 | 0.15 | 57 | 1011.5 |
| 20260508193216 | 9 | 0 | 0.0 | 4.8 | 0.00 | 0.15 | 0.15 | 59 | 1011.6 |
| 20260508192601 | 10 | 0 | 0.0 | 6.4 | 0.00 | 0.15 | 0.15 | 59 | 1011.7 |
| 20260508192059 | 9 | 0 | 0.0 | 6.4 | 0.00 | 0.15 | 0.15 | 60 | 1011.7 |
| 20260508191704 | 8 | 199 | 0.0 | 4.8 | 0.00 | 0.15 | 0.15 | 64 | 1011.7 |
| 20260508191059 | 8 | 0 | 0.0 | 1.6 | 0.00 | 0.15 | 0.15 | 63 | 1011.9 |
| 20260508190556 | 7 | 0 | 0.0 | 1.6 | 0.00 | 0.15 | 0.15 | 65 | 1011.9 |
| 20260508190242 | 7 | 0 | 0.0 | 1.6 | 0.00 | 0.15 | 0.15 | 64 | 1012.0 |
| 20260508185559 | 7 | 0 | 0.0 | 4.8 | 0.00 | 0.15 | 0.15 | 61 | 1012.1 |
| 20260508185055 | 7 | 0 | 0.0 | 6.4 | 0.00 | 0.15 | 0.15 | 63 | 1012.0 |
| 20260508184738 | 8 | 0 | 0.0 | 14.5 | 0.00 | 0.15 | 0.15 | 62 | 1011.9 |
| 20260508184102 | 8 | 0 | 0.0 | 14.5 | 0.00 | 0.15 | 0.15 | 62 | 1011.9 |
| 20260508183559 | 8 | 0 | 1.6 | 14.5 | 0.00 | 0.15 | 0.15 | 60 | 1011.9 |
| 20260508183055 | 8 | 332 | 0.0 | 3.2 | 0.00 | 0.15 | 0.15 | 61 | 1011.9 |
| 20260508182600 | 9 | 0 | 0.0 | 6.4 | 0.00 | 0.15 | 0.15 | 62 | 1011.9 |
| 20260508182057 | 8 | 0 | 0.0 | 6.4 | 0.00 | 0.15 | 0.15 | 69 | 1011.9 |
| 20260508181558 | 8 | 0 | 0.0 | 1.6 | 0.00 | 0.15 | 0.15 | 62 | 1011.9 |
| 20260508181100 | 8 | 0 | 0.0 | 1.6 | 0.00 | 0.15 | 0.15 | 70 | 1012.0 |
| 20260508180559 | 7 | 0 | 0.0 | 6.4 | 0.00 | 0.15 | 0.15 | 66 | 1012.0 |
| 20260508180100 | 8 | 0 | 0.0 | 6.4 | 0.00 | 0.15 | 0.15 | 65 | 1012.0 |
| 20260508175556 | 8 | 196 | 0.0 | 4.8 | 0.00 | 0.15 | 0.15 | 69 | 1012.0 |
| 20260508175056 | 7 | 0 | 0.0 | 6.4 | 0.00 | 0.15 | 0.15 | 72 | 1012.0 |
| 20260508174558 | 7 | 0 | 0.0 | 11.3 | 0.00 | 0.15 | 0.15 | 68 | 1012.0 |
| 20260508174100 | 7 | 0 | 1.6 | 11.3 | 0.00 | 0.15 | 0.15 | 72 | 1012.0 |
| 20260508173556 | 7 | 0 | 0.0 | 8.0 | 0.00 | 0.15 | 0.15 | 75 | 1012.0 |
| 20260508173117 | 6 | 0 | 0.0 | 8.0 | 0.00 | 0.15 | 0.15 | 73 | 1012.1 |
| 20260508172556 | 6 | 201 | 0.0 | 8.0 | 0.00 | 0.15 | 0.15 | 71 | 1012.1 |
| 20260508172056 | 6 | 0 | 0.0 | 8.0 | 0.00 | 0.15 | 0.15 | 72 | 1012.2 |
| 20260508171609 | 6 | 199 | 0.0 | 4.8 | 0.00 | 0.15 | 0.15 | 74 | 1012.1 |
| 20260508171059 | 6 | 0 | 0.0 | 4.8 | 0.00 | 0.15 | 0.15 | 75 | 1012.1 |
| 20260508170558 | 6 | 0 | 0.0 | 1.6 | 0.00 | 0.15 | 0.15 | 77 | 1012.2 |
| 20260508165556 | 6 | 0 | 0.0 | 0.0 | 0.00 | 0.15 | 0.15 | 78 | 1012.2 |
| 20260508165058 | 6 | 0 | 0.0 | 1.6 | 0.00 | 0.15 | 0.15 | 77 | 1012.2 |
| 20260508164556 | 6 | 0 | 0.0 | 4.8 | 0.00 | 0.15 | 0.15 | 79 | 1012.2 |
| 20260508164057 | 6 | 0 | 0.0 | 4.8 | 0.00 | 0.15 | 0.15 | 78 | 1012.3 |
| 20260508163557 | 5 | 178 | 0.0 | 6.4 | 0.00 | 0.15 | 0.15 | 81 | 1012.2 |
| 20260508163059 | 5 | 0 | 0.0 | 6.4 | 0.00 | 0.15 | 0.15 | 81 | 1012.3 |
| 20260508162555 | 5 | 0 | 0.0 | 1.6 | 0.00 | 0.15 | 0.15 | 83 | 1012.2 |
| 20260508162059 | 5 | 0 | 0.0 | 0.0 | 0.00 | 0.15 | 0.15 | 83 | 1012.3 |
| 20260508161559 | 5 | 0 | 0.0 | 0.0 | 0.00 | 0.15 | 0.15 | 83 | 1012.3 |
| 20260508161056 | 5 | 0 | 0.0 | 3.2 | 0.00 | 0.15 | 0.15 | 84 | 1012.3 |
| 20260508160556 | 5 | 0 | 0.0 | 3.2 | 0.00 | 0.15 | 0.15 | 86 | 1012.4 |
| 20260508160058 | 5 | 0 | 0.0 | 4.8 | 0.00 | 0.15 | 0.15 | 85 | 1012.4 |
| 20260508155556 | 5 | 0 | 0.0 | 4.8 | 0.00 | 0.15 | 0.15 | 87 | 1012.2 |
| 20260508155057 | 4 | 331 | 0.0 | 0.0 | 0.00 | 0.15 | 0.15 | 87 | 1012.3 |
| 20260508154600 | 4 | 0 | 0.0 | 0.0 | 0.00 | 0.15 | 0.15 | 87 | 1012.3 |
| 20260508154058 | 4 | 0 | 0.0 | 6.4 | 0.00 | 0.15 | 0.15 | 89 | 1012.3 |
| 20260508153556 | 4 | 0 | 0.0 | 6.4 | 0.03 | 0.15 | 0.15 | 89 | 1012.2 |
| 20260508153059 | 3 | 200 | 0.0 | 6.4 | 0.03 | 0.15 | 0.15 | 89 | 1012.3 |
| 20260508152558 | 3 | 0 | 0.0 | 1.6 | 0.05 | 0.15 | 0.15 | 89 | 1012.4 |
| 20260508152058 | 3 | 0 | 0.0 | 1.6 | 0.08 | 0.15 | 0.15 | 90 | 1012.4 |
| 20260508151614 | 3 | 0 | 0.0 | 0.0 | 0.10 | 0.15 | 0.15 | 90 | 1012.4 |
| 20260508151055 | 3 | 0 | 0.0 | 0.0 | 0.10 | 0.15 | 0.15 | 90 | 1012.4 |
| 20260508150559 | 3 | 0 | 0.0 | 0.0 | 0.10 | 0.15 | 0.15 | 90 | 1012.3 |
| 20260508150117 | 3 | 0 | 0.0 | 0.0 | 0.10 | 0.15 | 0.15 | 90 | 1012.4 |
| 20260508145655 | 2 | 0 | 0.0 | 0.0 | 0.13 | 0.15 | 0.15 | 89 | 1012.4 |
| 20260508145558 | 2 | 0 | 0.0 | 0.0 | 0.13 | 0.15 | 0.15 | 89 | 1012.4 |
| 20260508145058 | 2 | 0 | 0.0 | 0.0 | 0.13 | 0.15 | 0.15 | 89 | 1012.3 |
| 20260508144558 | 2 | 0 | 0.0 | 0.0 | 0.13 | 0.15 | 0.15 | 88 | 1012.4 |
| 20260508144057 | 2 | 0 | 0.0 | 0.0 | 0.15 | 0.15 | 0.15 | 88 | 1012.3 |
| 20260508143602 | 2 | 0 | 0.0 | 0.0 | 0.13 | 0.13 | 0.13 | 87 | 1012.3 |
| 20260508143206 | 2 | 0 | 0.0 | 0.0 | 0.10 | 0.10 | 0.10 | 86 | 1012.5 |
| 20260508142555 | 3 | 0 | 0.0 | 1.6 | 0.10 | 0.10 | 0.10 | 86 | 1012.4 |
| 20260508142059 | 3 | 0 | 0.0 | 1.6 | 0.08 | 0.08 | 0.08 | 85 | 1012.4 |
| 20260508141608 | 3 | 0 | 0.0 | 0.0 | 0.05 | 0.05 | 0.05 | 86 | 1012.4 |
| 20260508141058 | 3 | 0 | 0.0 | 0.0 | 0.05 | 0.05 | 0.05 | 86 | 1012.1 |
| 20260508140555 | 3 | 0 | 0.0 | 0.0 | 0.05 | 0.05 | 0.05 | 85 | 1012.0 |
| 20260508140110 | 4 | 0 | 0.0 | 0.0 | 0.05 | 0.05 | 0.05 | 85 | 1011.9 |
| 20260508135556 | 4 | 0 | 0.0 | 0.0 | 0.03 | 0.03 | 0.03 | 85 | 1011.9 |
| 20260508135056 | 4 | 0 | 0.0 | 0.0 | 0.03 | 0.03 | 0.03 | 83 | 1011.7 |
| 20260508134610 | 5 | 0 | 0.0 | 0.0 | 0.03 | 0.03 | 0.03 | 82 | 1011.8 |
| 20260508134058 | 5 | 0 | 0.0 | 0.0 | 0.00 | 0.00 | 0.00 | 82 | 1011.7 |
| 20260508133559 | 5 | 0 | 0.0 | 0.0 | 0.00 | 0.00 | 0.00 | 81 | 1011.7 |
| 20260508133103 | 5 | 0 | 0.0 | 0.0 | 0.00 | 0.00 | 0.00 | 79 | 1011.7 |
| 20260508132555 | 5 | 0 | 0.0 | 0.0 | 0.00 | 0.00 | 0.00 | 79 | 1011.7 |
| 20260508132055 | 5 | 0 | 0.0 | 0.0 | 0.00 | 0.00 | 0.00 | 79 | 1011.7 |
| 20260508131645 | 5 | 0 | 0.0 | 0.0 | 0.00 | 0.00 | 0.00 | 78 | 1011.8 |
| 20260508131056 | 5 | 0 | 0.0 | 0.0 | 0.00 | 0.00 | 0.00 | 78 | 1011.7 |
| 20260508130558 | 5 | 0 | 0.0 | 0.0 | 0.00 | 0.00 | 0.00 | 75 | 1011.6 |
| 20260508130111 | 6 | 0 | 0.0 | 0.0 | 0.00 | 0.00 | 0.00 | 76 | 1011.4 |
| 20260508125559 | 6 | 0 | 0.0 | 0.0 | 0.00 | 0.03 | 0.00 | 77 | 1011.1 |
| 20260508125059 | 6 | 0 | 0.0 | 0.0 | 0.00 | 0.03 | 0.00 | 78 | 1011.0 |
| 20260508124600 | 6 | 0 | 0.0 | 0.0 | 0.00 | 0.03 | 0.00 | 79 | 1011.0 |
| 20260508124058 | 6 | 0 | 0.0 | 0.0 | 0.00 | 0.03 | 0.00 | 81 | 1011.0 |
| 20260508123555 | 5 | 0 | 0.0 | 0.0 | 0.00 | 0.03 | 0.00 | 82 | 1011.2 |
| 20260508123327 | 5 | 0 | 0.0 | 0.0 | 0.00 | 0.03 | 0.00 | 85 | 1011.4 |
| 20260508122558 | -17 | 0.0 | 0.0 | 0.00 | 0.03 | 0.00 | 1011.4 | ||
| 20260508122057 | -17 | 0.0 | 0.0 | 0.00 | 0.03 | 0.00 | 1011.5 | ||
| 20260508121654 | -17 | 0.0 | 0.0 | 0.00 | 0.03 | 0.00 | 1011.5 | ||
| 20260508121055 | -17 | 0.0 | 0.0 | 0.00 | 0.03 | 0.00 | 1011.4 | ||
| 20260508120556 | -17 | 0.0 | 0.0 | 0.00 | 0.03 | 0.00 | 1011.3 | ||
| 20260508120245 | -17 | 0.0 | 0.0 | 0.00 | 0.03 | 0.00 | 1011.0 | ||
| 20260508115555 | -17 | 0.0 | 0.0 | 0.00 | 0.03 | 0.00 | 1011.3 | ||
| 20260508115055 | -17 | 0.0 | 0.0 | 0.00 | 0.03 | 0.00 | 1011.5 | ||
| 20260508114606 | -17 | 0.0 | 0.0 | 0.00 | 0.03 | 0.00 | 1011.5 | ||
| 20260508114055 | -17 | 0.0 | 0.0 | 0.00 | 0.03 | 0.00 | 1011.5 | ||
| 20260508113556 | -17 | 0.0 | 0.0 | 0.00 | 0.03 | 0.00 | 1011.6 | ||
| 20260508113110 | -17 | 0.0 | 0.0 | 0.00 | 0.03 | 0.00 | 1011.6 | ||
| 20260508112558 | -17 | 0.0 | 0.0 | 0.00 | 0.03 | 0.00 | 1011.5 | ||
| 20260508112055 | -17 | 0.0 | 0.0 | 0.00 | 0.03 | 0.00 | 1011.6 | ||
| 20260508111601 | -17 | 0.0 | 0.0 | 0.00 | 0.03 | 0.00 | 1011.7 | ||
| 20260508111059 | -17 | 0.0 | 0.0 | 0.00 | 0.03 | 0.00 | 1011.7 | ||
| 20260508110555 | -17 | 0.0 | 0.0 | 0.00 | 0.03 | 0.00 | 1011.6 | ||
| 20260508110103 | -17 | 0.0 | 0.0 | 0.00 | 0.03 | 0.00 | 1011.7 | ||
| 20260508105555 | -17 | 0.0 | 0.0 | 0.00 | 0.03 | 0.00 | 1011.6 | ||
| 20260508105056 | -17 | 0.0 | 0.0 | 0.00 | 0.03 | 0.00 | 1011.5 | ||
| 20260508104624 | -17 | 0.0 | 0.0 | 0.00 | 0.03 | 0.00 | 1011.5 | ||
| 20260508104059 | -17 | 0.0 | 0.0 | 0.00 | 0.03 | 0.00 | 1011.7 | ||
| 20260508103559 | -17 | 0.0 | 0.0 | 0.00 | 0.03 | 0.00 | 1011.8 | ||
| 20260508103058 | -17 | 0.0 | 0.0 | 0.00 | 0.03 | 0.00 | 1011.8 | ||
| 20260508102555 | -17 | 0.0 | 0.0 | 0.00 | 0.03 | 0.00 | 1011.8 | ||
| 20260508102058 | -17 | 0.0 | 0.0 | 0.00 | 0.03 | 0.00 | 1011.7 | ||
| 20260508101556 | -17 | 0.0 | 0.0 | 0.00 | 0.03 | 0.00 | 1011.7 | ||
| 20260508101202 | -17 | 0.0 | 0.0 | 0.00 | 0.03 | 0.00 | 1011.6 | ||
| 20260508100558 | -17 | 0.0 | 0.0 | 0.00 | 0.03 | 0.00 | 1011.4 | ||
| 20260508100312 | -17 | 0.0 | 0.0 | 0.00 | 0.03 | 0.00 | 1011.3 | ||
| 20260508095556 | -17 | 0.0 | 0.0 | 0.00 | 0.03 | 0.00 | 1011.3 | ||
| 20260508095055 | -17 | 0.0 | 0.0 | 0.00 | 0.03 | 0.00 | 1011.1 | ||
| 20260508094616 | -17 | 0.0 | 0.0 | 0.00 | 0.03 | 0.00 | 1011.1 | ||
| 20260508094104 | -17 | 0.0 | 0.0 | 0.00 | 0.03 | 0.00 | 1011.1 | ||
| 20260508093603 | -17 | 0.0 | 0.0 | 0.00 | 0.03 | 0.00 | 1011.1 | ||
| 20260508093217 | -17 | 0.0 | 0.0 | 0.00 | 0.03 | 0.00 | 1011.0 | ||
| 20260508092555 | -17 | 0.0 | 0.0 | 0.00 | 0.03 | 0.00 | 1011.0 | ||
| 20260508092058 | -17 | 0.0 | 0.0 | 0.00 | 0.03 | 0.00 | 1011.1 | ||
| 20260508091619 | -17 | 0.0 | 0.0 | 0.00 | 0.03 | 0.00 | 1011.0 | ||
| 20260508091055 | -17 | 0.0 | 0.0 | 0.00 | 0.03 | 0.00 | 1011.0 | ||
| 20260508090557 | -17 | 0.0 | 0.0 | 0.00 | 0.03 | 0.00 | 1011.2 | ||
| 20260508090109 | -17 | 0.0 | 0.0 | 0.00 | 0.03 | 0.00 | 1011.2 | ||
| 20260508085556 | -17 | 0.0 | 0.0 | 0.00 | 0.03 | 0.00 | 1011.3 | ||
| 20260508085059 | -17 | 0.0 | 0.0 | 0.00 | 0.03 | 0.00 | 1011.4 | ||
| 20260508084558 | -17 | 0.0 | 0.0 | 0.00 | 0.03 | 0.00 | 1011.4 | ||
| 20260508084059 | -17 | 0.0 | 0.0 | 0.00 | 0.03 | 0.00 | 1011.3 | ||
| 20260508083556 | -17 | 0.0 | 0.0 | 0.00 | 0.03 | 0.00 | 1011.2 | ||
| 20260508083110 | -17 | 0.0 | 0.0 | 0.00 | 0.03 | 0.00 | 1011.4 | ||
| 20260508082555 | -17 | 0.0 | 0.0 | 0.00 | 0.03 | 0.00 | 1011.5 | ||
| 20260508082056 | -17 | 0.0 | 0.0 | 0.00 | 0.03 | 0.00 | 1011.5 | ||
| 20260508081757 | -17 | 0.0 | 0.0 | 0.00 | 0.03 | 0.00 | 1011.4 | ||
| 20260508081100 | -17 | 0.0 | 0.0 | 0.00 | 0.03 | 0.00 | 1011.3 | ||
| 20260508080555 | -17 | 0.0 | 0.0 | 0.00 | 0.03 | 0.00 | 1011.2 | ||
| 20260508080109 | -17 | 0.0 | 0.0 | 0.00 | 0.03 | 0.00 | 1011.3 | ||
| 20260508075556 | -17 | 0.0 | 0.0 | 0.00 | 0.03 | 0.00 | 1011.2 | ||
| 20260508075055 | -17 | 0.0 | 0.0 | 0.00 | 0.03 | 0.00 | 1011.3 | ||
| 20260508074604 | -17 | 0.0 | 0.0 | 0.00 | 0.03 | 0.00 | 1011.2 | ||
| 20260508074057 | -17 | 0.0 | 0.0 | 0.00 | 0.03 | 0.00 | 1011.3 | ||
| 20260508073557 | -17 | 0.0 | 0.0 | 0.00 | 0.03 | 0.00 | 1011.2 | ||
| 20260508073059 | -17 | 0.0 | 0.0 | 0.00 | 0.03 | 0.00 | 1011.2 | ||
| 20260508072610 | -17 | 0.0 | 0.0 | 0.00 | 0.03 | 0.00 | 1011.1 | ||
| 20260508072057 | -17 | 0.0 | 0.0 | 0.00 | 0.03 | 0.00 | 1011.0 | ||
| 20260508071603 | -17 | 0.0 | 0.0 | 0.00 | 0.03 | 0.00 | 1011.1 | ||
| 20260508071058 | -17 | 0.0 | 0.0 | 0.00 | 0.03 | 0.00 | 1011.0 | ||
| 20260508070558 | -17 | 0.0 | 0.0 | 0.00 | 0.03 | 0.00 | 1010.9 | ||
| 20260508070322 | -17 | 0.0 | 0.0 | 0.00 | 0.03 | 0.00 | 1010.8 | ||
| 20260508070144 | -17 | 0.0 | 0.0 | 0.00 | 0.03 | 0.00 | 1010.8 | ||
| 20260508065557 | -17 | 0.0 | 0.0 | 0.00 | 0.03 | 0.00 | 1010.8 | ||
| 20260508065057 | -17 | 0.0 | 0.0 | 0.00 | 0.03 | 0.00 | 1010.8 | ||
| 20260508064608 | -17 | 0.0 | 0.0 | 0.00 | 0.03 | 0.00 | 1010.8 | ||
| 20260508064103 | -17 | 0.0 | 0.0 | 0.00 | 0.03 | 0.00 | 1010.7 | ||
| 20260508063558 | -17 | 0.0 | 0.0 | 0.00 | 0.03 | 0.00 | 1010.7 | ||
| 20260508063057 | -17 | 0.0 | 0.0 | 0.00 | 0.03 | 0.00 | 1010.6 | ||
| 20260508062557 | -17 | 0.0 | 0.0 | 0.00 | 0.03 | 0.00 | 1010.7 | ||
| 20260508062057 | -17 | 0.0 | 0.0 | 0.00 | 0.03 | 0.00 | 1010.7 | ||
| 20260508061604 | -17 | 0.0 | 0.0 | 0.00 | 0.03 | 0.00 | 1010.6 | ||
| 20260508061100 | -17 | 0.0 | 0.0 | 0.00 | 0.03 | 0.00 | 1010.5 | ||
| 20260508060558 | -17 | 0.0 | 0.0 | 0.00 | 0.03 | 0.00 | 1010.4 | ||
| 20260508060055 | -17 | 0.0 | 0.0 | 0.00 | 0.03 | 0.00 | 1010.4 | ||
| 20260508055557 | -17 | 0.0 | 0.0 | 0.00 | 0.03 | 0.00 | 1010.4 | ||
| 20260508055057 | -17 | 0.0 | 0.0 | 0.00 | 0.03 | 0.00 | 1010.6 | ||
| 20260508054558 | -17 | 0.0 | 0.0 | 0.00 | 0.03 | 0.00 | 1010.5 | ||
| 20260508054056 | -17 | 0.0 | 0.0 | 0.00 | 0.03 | 0.00 | 1010.6 | ||
| 20260508053557 | -17 | 0.0 | 0.0 | 0.00 | 0.03 | 0.00 | 1010.6 | ||
| 20260508053105 | -17 | 0.0 | 0.0 | 0.00 | 0.03 | 0.00 | 1010.7 | ||
| 20260508052558 | -17 | 0.0 | 0.0 | 0.00 | 0.03 | 0.00 | 1010.8 | ||
| 20260508052057 | -17 | 0.0 | 0.0 | 0.00 | 0.03 | 0.00 | 1010.8 | ||
| 20260508051556 | -17 | 0.0 | 0.0 | 0.00 | 0.03 | 0.00 | 1010.9 | ||
| 20260508051101 | -17 | 0.0 | 0.0 | 0.00 | 0.03 | 0.00 | 1010.8 | ||
| 20260508050558 | -17 | 0.0 | 0.0 | 0.00 | 0.03 | 0.00 | 1010.9 | ||
| 20260508050100 | -17 | 0.0 | 0.0 | 0.00 | 0.03 | 0.00 | 1010.9 | ||
| 20260508045557 | -17 | 0.0 | 0.0 | 0.00 | 0.03 | 0.00 | 1010.8 | ||
| 20260508045100 | -17 | 0.0 | 0.0 | 0.00 | 0.03 | 0.00 | 1010.9 | ||
| 20260508044555 | -17 | 0.0 | 0.0 | 0.00 | 0.03 | 0.00 | 1010.9 | ||
| 20260508044057 | -17 | 0.0 | 0.0 | 0.00 | 0.03 | 0.00 | 1011.0 | ||
| 20260508043557 | -17 | 0.0 | 0.0 | 0.00 | 0.03 | 0.00 | 1010.9 | ||
| 20260508043103 | -17 | 0.0 | 0.0 | 0.00 | 0.03 | 0.00 | 1010.8 | ||
| 20260508042557 | -17 | 0.0 | 0.0 | 0.00 | 0.03 | 0.00 | 1010.8 | ||
| 20260508042057 | -17 | 0.0 | 0.0 | 0.00 | 0.03 | 0.00 | 1010.8 | ||
| 20260508041558 | -17 | 0.0 | 0.0 | 0.00 | 0.03 | 0.00 | 1010.9 | ||
| 20260508041059 | -17 | 0.0 | 0.0 | 0.00 | 0.03 | 0.00 | 1010.8 | ||
| 20260508040558 | -17 | 0.0 | 0.0 | 0.00 | 0.03 | 0.00 | 1010.9 | ||
| 20260508040058 | -17 | 0.0 | 0.0 | 0.00 | 0.03 | 0.00 | 1010.9 | ||
| 20260508035602 | -17 | 0.0 | 0.0 | 0.00 | 0.03 | 0.03 | 1010.9 | ||
| 20260508035058 | -17 | 0.0 | 0.0 | 0.00 | 0.03 | 0.03 | 1010.9 | ||
| 20260508034558 | -17 | 0.0 | 0.0 | 0.00 | 0.03 | 0.03 | 1010.8 | ||
| 20260508034058 | -17 | 0.0 | 0.0 | 0.00 | 0.03 | 0.03 | 1010.8 | ||
| 20260508033556 | -17 | 0.0 | 0.0 | 0.00 | 0.03 | 0.03 | 1010.8 | ||
| 20260508033057 | -17 | 0.0 | 0.0 | 0.00 | 0.03 | 0.03 | 1010.7 | ||
| 20260508032557 | -17 | 0.0 | 0.0 | 0.00 | 0.03 | 0.03 | 1010.7 | ||
| 20260508032059 | -17 | 0.0 | 0.0 | 0.00 | 0.03 | 0.03 | 1010.5 | ||
| 20260508031558 | -17 | 0.0 | 0.0 | 0.00 | 0.03 | 0.03 | 1010.6 | ||
| 20260508031101 | -17 | 0.0 | 0.0 | 0.00 | 0.03 | 0.03 | 1010.6 | ||
| 20260508030557 | -17 | 0.0 | 0.0 | 0.00 | 0.03 | 0.03 | 1010.5 | ||
| 20260508025557 | -17 | 0.0 | 0.0 | 0.00 | 0.03 | 0.03 | 1010.5 | ||
| 20260508025057 | -17 | 0.0 | 0.0 | 0.00 | 0.03 | 0.03 | 1010.2 | ||
| 20260508024934 | -17 | 0.0 | 0.0 | 0.00 | 0.03 | 0.03 | 1010.2 | ||
| 20260508024100 | -17 | 0.0 | 0.0 | 0.00 | 0.03 | 0.03 | 1010.2 | ||
| 20260508023558 | -17 | 0.0 | 0.0 | 0.00 | 0.03 | 0.03 | 1010.3 | ||
| 20260508023057 | -17 | 0.0 | 0.0 | 0.00 | 0.03 | 0.03 | 1010.3 |